Flag for Cuba Weather past 2 weeks in Camagüey, Cuba

Now
79 °F

Partly sunny.


Feels Like: 82 °F
Forecast: N/A
Wind: 6 mph from North

Location: Camaguey Aeropuerto

Current Time: Aug 1, 2014 at 7:41:24 PM

Latest Report: Aug 1, 2014 at 6:50 PM


Visibility: 6 mi

Pressure: 29.92 "Hg

Humidity: 84%

Dew point: 73 °F

Location of CamagüeyLocation

Historic Weather in Camagüey — Graph

°F

Camagüey temperature yesterday

Maximum temperature yesterday: 91 °F (at 2:50 PM)
Minimum temperature yesterday: 73 °F (at 2:50 AM)
Average temperature yesterday: 81 °F

Past Weeks' High & Low Weather Summary

 TemperatureHumidityPressure
High93 °F (Jul 21, 4:50 PM)100% (Aug 1, 4:53 PM)30.12 "Hg (Aug 1, 4:53 PM)
Low45 °F (Aug 1, 4:53 PM)39% (Jul 30, 2:50 PM)29.92 "Hg (Aug 1, 2:51 PM)
Average81 °F74%30.05 "Hg
* Reported Jul 17 5:50 PM — Aug 1 5:50 PM, Camagüey, Weather by CustomWeather, © 2014

Note: Actual official high and low records may vary slightly from our data, if they occured in-between our weather recording intervals... More about our weather records

Advertising

Camagüey weather history for previous 24 hours

 ConditionsComfort  
Time TempWeatherWind HumidityBarometerVisibility
5:50 PM
Aug 1
75 °FStrong thunderstorms. Broken clouds.10 mph83%29.95 "Hg0 mi
5:04 PM79 °FRain. Broken clouds.9 mph79%29.92 "Hg1 mi
4:53 PM45 °FScattered showers. Broken clouds.13 mph100%29.92 "Hg6 mi
3:53 PM90 °FScattered clouds.13 mph52%29.92 "Hg6 mi
2:51 PM91 °FScattered clouds.6 mph44%29.92 "Hg6 mi
1:52 PM91 °FScattered clouds.9 mph44%29.95 "Hg6 mi
12:50 PM91 °FScattered clouds.12 mph46%29.98 "Hg6 mi
11:50 AM88 °FScattered clouds.10 mph55%29.98 "Hg6 mi
10:51 AM86 °FScattered clouds.10 mph59%29.98 "Hg6 mi
9:50 AM84 °FPassing clouds.10 mph62%29.98 "Hg6 mi
8:50 AM81 °FPassing clouds.9 mph79%29.98 "Hg6 mi
7:50 AM77 °FPassing clouds.5 mph89%29.98 "Hg6 mi
6:50 AM73 °FPassing clouds.6 mph94%29.95 "Hg6 mi
5:52 AM73 °FPassing clouds.5 mph94%29.95 "Hg6 mi
4:51 AM73 °FClear.6 mph94%29.95 "Hg6 mi
3:50 AM75 °FClear.2 mph89%29.98 "Hg6 mi
2:52 AM75 °FClear.5 mph89%29.98 "Hg6 mi
1:51 AM75 °FClear.6 mph89%30.01 "Hg6 mi
12:51 AM75 °FPassing clouds.6 mph89%30.01 "Hg6 mi
11:50 PM
Jul 31
77 °FPassing clouds.2 mph83%30.04 "Hg6 mi
10:52 PM77 °FClear.3 mph83%30.04 "Hg6 mi
9:54 PM79 °FPassing clouds.6 mph74%30.01 "Hg6 mi
8:50 PM81 °FPartly sunny.8 mph70%30.01 "Hg6 mi
7:50 PM82 °FPassing clouds.8 mph62%30.01 "Hg6 mi
Weather by CustomWeather, © 2014

See weather overviewHow to use our weather pages